Location: ???? ?????????
(44.3677°N, 135.2344°E)
Time: 02:52:14
(UTC+00:00)

PSLV R/B - Pass Details

Date: 19 May 2025
Orbit: 586 x 683 km, 97.9° (Epoch: 15 June)

Event Time Altitude Azimuth Distance (km) Brightness Sun altitude
Rises 14:33:48 0° 14° (NNE) 2,841 8.1 -25.5°
Reaches altitude 10° 14:35:59 10° 15° (NNE) 1,928 7.0 -25.6°
Enters shadow 14:39:30 61° 32° (NNE) 670 3.8 -25.6°
